San Luis Obispo, CA

4:56 PM PDT on August 24, 2016 (GMT -0700)
San Luis Obispo County-McChesney

Weather History for KSBP - March, 2013

Change the Weather History Date:

Thursday, March 7, 2013

  Actual Average Record
Temperature  
Mean Temperature 50 °F -  
Max Temperature 55 °F 67 °F 84 °F (1993)
Min Temperature 46 °F 42 °F 32 °F (1999)
Degree Days  
Heating Degree Days 14    
Moisture  
Dew Point 45 °F    
Average Humidity 84    
Maximum Humidity 93    
Minimum Humidity 64    
Precipitation  
Precipitation 0.29 in - - ()
Sea Level Pressure  
Sea Level Pressure 29.95 in    
Wind  
Wind Speed 2 mph (South)    
Max Wind Speed 12 mph    
Max Gust Speed -    
Visibility 9 miles    
Events Rain    
Averages and records for this station are not official NWS values.
T = Trace of Precipitation, MM = Missing Value Source: NWS Daily Summary

Daily Weather History Graph

Daily Weather History Graph

Search for Another Location

Airport or City:

Trip Planner

Search our weather history database for the weather conditions in past years. The results will help you decide how hot, cold, wet, or windy it might be!

Date:

Astronomy

Mar. 07, 2013 Rise Set
Actual Time 6:23 AM PST 6:03 PM PST
Civil Twilight 5:58 AM PST 6:29 PM PST
Nautical Twilight 5:29 AM PST 6:58 PM PST
Astronomical Twilight 4:59 AM PST 7:27 PM PST
Moon 3:19 AM PST (3/7) 2:04 PM PST (3/7)
Length of Visible Light 12h 30m
Length of Day
11h 39m
Waning Crescent, 19% of the Moon is Illuminated
Mar 7
Waning Crescent
Mar 11
New
Mar 19
First Quarter
Mar 27
Full
Apr 2
Last Quarter

Hourly Weather History & Observations

Time (PST) Temp. Dew Point Humidity Pressure Visibility Wind Dir Wind Speed Gust Speed Precip Events Conditions
12:04 AM 48.2 °F 46.4 °F 93% 30.02 in 10.0 mi Calm Calm - N/A   Overcast
12:12 AM 48.2 °F 46.4 °F 93% 30.02 in 10.0 mi Calm Calm - N/A   Overcast
12:51 AM 48.2 °F 46.4 °F 93% 30.01 in 10.0 mi Calm Calm - N/A   Overcast
12:56 AM 48.9 °F 46.9 °F 93% 30.02 in 10.0 mi Calm Calm - N/A   Overcast
1:07 AM 48.2 °F 46.4 °F 93% 30.01 in 10.0 mi Calm Calm - N/A   Overcast
1:56 AM 48.9 °F 46.9 °F 93% 30.01 in 10.0 mi Calm Calm - N/A   Overcast
2:56 AM 48.9 °F 46.0 °F 90% 29.99 in 10.0 mi Calm Calm - N/A   Overcast
3:56 AM 48.0 °F 46.0 °F 93% 29.98 in 10.0 mi Calm Calm - N/A   Clear
4:56 AM 46.9 °F 45.0 °F 93% 29.99 in 10.0 mi Calm Calm - N/A   Scattered Clouds
5:13 AM 46.4 °F 44.6 °F 93% 29.99 in 10.0 mi Calm Calm - N/A   Mostly Cloudy
5:42 AM 48.2 °F 44.6 °F 87% 29.98 in 10.0 mi Calm Calm - N/A   Mostly Cloudy
5:56 AM 46.9 °F 45.0 °F 93% 29.99 in 10.0 mi SW 3.5 mph - N/A   Overcast
6:56 AM 46.9 °F 44.1 °F 90% 29.98 in 10.0 mi ESE 3.5 mph - N/A   Overcast
7:52 AM 48.2 °F 44.6 °F 87% 29.99 in 10.0 mi Calm Calm - N/A   Overcast
7:56 AM 48.0 °F 45.0 °F 89% 29.99 in 10.0 mi Calm Calm - N/A   Overcast
8:56 AM 51.1 °F 46.9 °F 86% 29.99 in 6.0 mi Calm Calm - 0.00 in Rain Light Rain
9:06 AM 51.8 °F 48.2 °F 88% 29.98 in 10.0 mi Calm Calm - 0.00 in Rain Light Rain
9:56 AM 53.1 °F 48.9 °F 86% 29.98 in 10.0 mi NNE 4.6 mph - 0.03 in   Overcast
10:17 AM 53.6 °F 48.2 °F 82% 29.97 in 10.0 mi East 3.5 mph - N/A   Mostly Cloudy
10:53 AM 55.4 °F 46.4 °F 72% 29.97 in 10.0 mi South 6.9 mph - N/A   Overcast
10:56 AM 55.0 °F 46.0 °F 72% 29.97 in 10.0 mi South 5.8 mph - N/A   Overcast
11:56 AM 55.9 °F 45.0 °F 67% 29.96 in 10.0 mi SSW 11.5 mph - 0.00 in Rain Light Rain
12:56 PM 55.9 °F 44.1 °F 64% 29.94 in 10.0 mi SW 5.8 mph - 0.00 in   Overcast
1:56 PM 55.0 °F 44.1 °F 67% 29.91 in 10.0 mi SSW 5.8 mph - N/A   Mostly Cloudy
2:56 PM 55.0 °F 43.0 °F 64% 29.91 in 10.0 mi SW 9.2 mph - N/A   Mostly Cloudy
3:56 PM 54.0 °F 42.1 °F 64% 29.90 in 10.0 mi SW 5.8 mph - N/A   Overcast
4:56 PM 54.0 °F 42.1 °F 64% 29.89 in 10.0 mi South 3.5 mph - N/A   Overcast
5:56 PM 53.1 °F 45.0 °F 74% 29.88 in 10.0 mi SSW 4.6 mph - N/A   Overcast
6:56 PM 51.1 °F 46.0 °F 83% 29.88 in 5.0 mi South 9.2 mph - 0.02 in Rain Light Rain
7:56 PM 48.9 °F 46.0 °F 90% 29.88 in 8.0 mi South 6.9 mph - 0.04 in Rain Light Rain
8:56 PM 48.0 °F 46.0 °F 93% 29.89 in 6.0 mi SSE 4.6 mph - 0.08 in Rain Light Rain
9:34 PM 48.2 °F 46.4 °F 93% 29.89 in 6.0 mi SE 4.6 mph - 0.06 in Rain Light Rain
9:56 PM 48.0 °F 46.0 °F 93% 29.89 in 6.0 mi ESE 6.9 mph - 0.09 in Rain Light Rain
10:56 PM 46.9 °F 44.1 °F 90% 29.86 in 10.0 mi ESE 9.2 mph - 0.03 in Rain Light Rain
11:56 PM 46.9 °F 43.0 °F 86% 29.85 in 10.0 mi ESE 8.1 mph - 0.00 in   Overcast